Location: ???????
(60.4260°N, 46.9069°E)
Time: 05:49:08
(UTC+00:00)

Cosmos 1898 Rocket - Pass Details

Date: 30 March 2020
Orbit: 753 x 784 km, 74.0° (Epoch: 25 May)

Event Time Altitude Azimuth Distance (km) Brightness Sun altitude
Exits shadow 00:55:53 - 205° (SSW) 2,421 5.6 -10.9°
Reaches altitude 10° 00:56:15 10° 205° (SSW) 2,278 5.5 -10.9°
Maximum altitude 01:01:25 79° 120° (ESE) 776 3.6 -10.3°
Drops below altitude 10° 01:06:38 10° 34° (NE) 2,301 7.0 -9.7°
Sets 01:09:01 0° 34° (NNE) 3,234 7.9 -9.5°
